Regional Weather Roundup
Issued by NWS

Home | Current Version | Previous Version | Graphics & Text | Print | Product List | Glossary On
Versions: 1 2 3 4 5 6 7 8 9 10 11 12 13 14 15 16 17 18 19 20 21 22 23 24 25 26 27 28 29 30 31 32 33 34 35 36 37 38 39 40 41 42 43 44 45 46 47 48 49 50
000
ASUS43 KIND 281559
RWRIN

WEATHER ROUNDUP FOR INDIANA
NATIONAL WEATHER SERVICE INDIANAPOLIS IN
1200 PM EDT FRI APR 28 2017

NOTE: "FAIR" INDICATES FEW OR NO CLOUDS BELOW 12,000 FEET WITH NO
SIGNIFICANT WEATHER AND/OR OBSTRUCTIONS TO VISIBILITY.

* - STATION DOES NOT REPORT WEATHER SUCH AS PRECIPITATION OR FOG.

+ - STATION NOT QUALITY CONTROLLED BY THE NATIONAL WEATHER SERVICE.
    USE DATA WITH CAUTION...ESPECIALLY DEWPOINT AND RELATIVE
    HUMIDITY OBSERVATIONS.

INZ001>003-010>013-019-020-281700-
NORTHWEST INDIANA

CITY           SKY/WX    TMP DP  RH WIND       PRES   REMARKS
GARY /AIRPORT/ PTSUNNY   54  45  71 VRB3      29.96R
MONTICELLO +   CLOUDY    55  44  68 S7        29.99R
RENSSELAER +   CLOUDY    54  46  76 S13       29.98S

$$

LMZ046-743>745-281700-
SOUTHERN LAKE MICHIGAN

STATION/POSITION TIME  TEMP    WIND        PRES    WAVE
                       AIR SEA DIR/SP/G            HT
                 (UTC) (F)     (DEG/KT/KT) (MB)    (FT)
BURNS HARBOR     1530   49      40/  5/  5 1015.2R
MICHIGAN CITY    1530   46      20/  4/  5   N/A
5NW MICH CITY    1550   45 46                N/A     1

$$

INZ004-005-014>016-021>024-281700-
NORTH CENTRAL INDIANA

CITY           SKY/WX    TMP DP  RH WIND       PRES   REMARKS
ELKHART        PTSUNNY   57  43  58 S12       29.97
GOSHEN         CLOUDY    56  42  59 S10       29.98R
SOUTH BEND     CLOUDY    55  44  66 S13       29.99R

$$

INZ006>009-017-018-025>027-281700-
NORTHEAST INDIANA

CITY           SKY/WX    TMP DP  RH WIND       PRES   REMARKS
ANGOLA *+      SUNNY     55  45  67 S9        29.97S
FORT WAYNE     CLOUDY    56  44  64 S16       30.01R
KENDALLVILLE + PTSUNNY   55  44  65 S8        29.98R

$$

INZ028-029-035-036-043>045-051>053-281700-
WEST CENTRAL INDIANA

CITY           SKY/WX    TMP DP  RH WIND       PRES   REMARKS
GREENCASTLE +  CLOUDY    50  46  87 SE3       30.00S
LAFAYETTE      CLOUDY    54  47  77 S6        29.98S
TERRE HAUTE    CLOUDY    52  47  83 SE7       29.98F

$$

INZ030>032-037>040-046>048-054>057-064-065-281700-
CENTRAL INDIANA

CITY           SKY/WX    TMP DP  RH WIND       PRES   REMARKS
INDIANAPOLIS   CLOUDY    53  47  79 SE5       30.00R
-EAGLE CREEK   CLOUDY    53  46  77 SE3       30.00R
KOKOMO +       CLOUDY    54  46  74 S13       30.03R
SHELBYVILLE    PTSUNNY   58  46  64 SE12      30.00R

$$

INZ033-034-041-042-049-050-058-059-281700-
EAST CENTRAL INDIANA

CITY           SKY/WX    TMP DP  RH WIND       PRES   REMARKS
MUNCIE         PTSUNNY   55  45  68 S7        30.00S
RICHMOND +     DRIZZLE   52  46  82 SE7       30.01F

$$

INZ060-061-067>069-081>083-085>088-281700-
SOUTHWEST INDIANA

CITY           SKY/WX    TMP DP  RH WIND       PRES   REMARKS
EVANSVILLE     LGT RAIN  59  51  75 E5        29.97R

$$

INZ062-063-066-070>080-084-089>092-281700-
SOUTH CENTRAL AND SOUTHEAST INDIANA

CITY           SKY/WX    TMP DP  RH WIND       PRES   REMARKS
BLOOMINGTON    CLOUDY    54  47  77 E8        29.98R
MADISON *+     MOSUNNY   63  50  63 E6        29.99F
SEYMOUR +      CLOUDY    61  48  63 SE8       29.97F

$$





USA.gov is the U.S. government's official web portal to all federal, state and local government web resources and services.